N5TDX Weather Reports


time (UTC)temp
F
wind
direction
speed
knots
gust
knots
rain 1hr
in
rain 24hr
in
rain mn
in
humidity
%
barometer
mb
20260506024726 69 90 0.9 3.5 0.00 0.00 0.00 66 1005.0
20260506024223 69 24 0.9 2.6 0.00 0.00 0.00 66 1005.2
20260506023719 69 39 0.0 3.5 0.00 0.00 0.00 66 1004.9
20260506023217 69 281 1.7 3.5 0.00 0.00 0.00 66 1004.7
20260506022713 70 91 1.7 2.6 0.00 0.00 0.00 66 1005.0
20260506022211 70 32 1.7 2.6 0.00 0.00 0.00 65 1004.7
20260506021709 70 56 0.9 5.2 0.00 0.00 0.00 65 1004.5
20260506021206 70 52 2.6 3.5 0.00 0.00 0.00 64 1004.7
20260506020703 71 98 0.9 7.8 0.00 0.00 0.00 65 1004.6
20260506020200 71 9 0.9 2.6 0.00 0.00 0.00 65 1004.2
20260506015658 71 25 0.9 2.6 0.00 0.00 0.00 65 1004.4
20260506015155 72 37 0.9 3.5 0.00 0.00 0.00 65 1004.2
20260506014652 72 20 0.9 1.7 0.00 0.00 0.00 64 1004.0
20260506014148 72 55 0.9 3.5 0.00 0.00 0.00 64 1003.6
20260506013646 72 49 0.9 2.6 0.00 0.00 0.00 63 1003.9
20260506013143 73 9 1.7 1.7 0.00 0.00 0.00 63 1003.8
20260506012639 73 338 0.0 3.5 0.00 0.00 0.00 63 1003.3
20260506012136 73 60 0.9 3.5 0.00 0.00 0.00 63 1003.5
20260506011633 73 2 1.7 2.6 0.00 0.00 0.00 62 1003.2
20260506011129 74 36 1.7 5.2 0.00 0.00 0.00 62 1003.0
20260506010628 74 25 0.0 2.6 0.00 0.00 0.00 61 1002.8
20260506010125 74 64 0.0 1.7 0.00 0.00 0.00 61 1003.0
20260506005622 74 53 0.9 2.6 0.00 0.00 0.00 61 1003.1
20260506005118 74 33 0.9 1.7 0.00 0.00 0.00 61 1002.6
20260506004615 75 326 0.9 1.7 0.00 0.00 0.00 60 1002.9
20260506004112 75 59 1.7 2.6 0.00 0.00 0.00 60 1002.9
20260506003608 75 13 0.9 2.6 0.00 0.00 0.00 60 1002.8
20260506003104 76 331 1.7 1.7 0.00 0.00 0.00 59 1002.9
20260506002600 76 48 0.9 2.6 0.00 0.00 0.00 59 1002.3
20260506002057 76 334 1.7 1.7 0.00 0.00 0.00 58 1002.6
20260506001553 77 77 0.0 1.7 0.00 0.00 0.00 57 1002.5
20260506001050 77 321 1.7 2.6 0.00 0.00 0.00 57 1002.4
20260506000547 77 30 1.7 5.2 0.00 0.00 0.00 56 1002.4
20260506000045 77 355 0.9 3.5 0.00 0.00 0.00 56 1002.5
20260505235543 78 59 0.9 2.6 0.00 0.00 0.00 55 1002.3
20260505235039 78 21 1.7 6.1 0.00 0.00 0.00 54 1002.3
20260505234536 79 61 0.9 3.5 0.00 0.00 0.00 54 1001.9
20260505234033 79 57 0.9 1.7 0.00 0.00 0.00 55 1002.2
20260505233530 79 345 1.7 3.5 0.00 0.00 0.00 54 1001.8
20260505233028 80 299 1.7 2.6 0.00 0.00 0.00 54 1002.0
20260505232526 80 46 1.7 3.5 0.00 0.00 0.00 54 1001.7
20260505232023 80 28 1.7 5.2 0.00 0.00 0.00 54 1001.7
20260505231520 80 49 1.7 3.5 0.00 0.00 0.00 55 1001.7
20260505231019 81 1 1.7 3.5 0.00 0.00 0.00 54 1001.7
20260505230515 82 33 3.5 6.1 0.00 0.00 0.00 54 1001.6
20260505230012 83 83 2.6 5.2 0.00 0.00 0.00 54 1001.6
20260505225509 83 60 3.5 7.0 0.00 0.00 0.00 54 1001.5
20260505225005 85 72 0.9 6.1 0.00 0.00 0.00 52 1001.5
20260505224502 85 349 0.0 3.5 0.00 0.00 0.00 48 1001.4
20260505223959 86 219 0.9 1.7 0.00 0.00 0.00 44 1001.3
20260505223456 87 337 0.9 1.7 0.00 0.00 0.00 42 1001.5
20260505222952 87 354 0.0 1.7 0.00 0.00 0.00 44 1001.1
20260505222449 87 62 0.9 1.7 0.00 0.00 0.00 44 1001.2
20260505221944 87 5 0.9 1.7 0.00 0.00 0.00 42 1001.0
20260505221442 88 52 1.7 2.6 0.00 0.00 0.00 42 1001.2
20260505220939 90 55 1.7 3.5 0.00 0.00 0.00 40 1001.1
20260505220436 92 293 0.9 1.7 0.00 0.00 0.00 39 1000.7
20260505215933 91 257 0.0 2.6 0.00 0.00 0.00 42 1000.8
20260505215431 91 228 2.6 2.6 0.00 0.00 0.00 39 1000.8
20260505214929 91 214 1.7 2.6 0.00 0.00 0.00 40 1000.9
20260505214426 92 224 0.9 3.5 0.00 0.00 0.00 39 1001.0
20260505213924 92 305 0.0 2.6 0.00 0.00 0.00 40 1000.9
20260505213421 92 300 0.9 1.7 0.00 0.00 0.00 38 1001.0
20260505212917 92 8 0.9 2.6 0.00 0.00 0.00 40 1000.7
20260505212414 91 267 1.7 3.5 0.00 0.00 0.00 40 1001.1
20260505211911 91 277 1.7 2.6 0.00 0.00 0.00 39 1001.1
20260505211409 91 218 1.7 5.2 0.00 0.00 0.00 41 1001.2
20260505210904 92 277 2.6 7.0 0.00 0.00 0.00 39 1001.2
20260505210402 91 263 0.9 3.5 0.00 0.00 0.00 38 1001.3
20260505205858 91 235 1.7 2.6 0.00 0.00 0.00 39 1001.2
20260505205357 91 248 0.9 7.8 0.00 0.00 0.00 40 1001.3
20260505204853 91 334 1.7 3.5 0.00 0.00 0.00 38 1001.6
20260505204351 91 197 3.5 5.2 0.00 0.00 0.00 40 1001.5
20260505203848 91 308 0.9 5.2 0.00 0.00 0.00 43 1001.7
20260505203344 91 278 0.0 0.9 0.00 0.00 0.00 45 1001.7
20260505202841 91 220 0.9 2.6 0.00 0.00 0.00 46 1001.8
20260505202337 91 215 0.9 1.7 0.00 0.00 0.00 45 1001.8
20260505201834 90 212 2.6 3.5 0.00 0.00 0.00 46 1001.8
20260505201332 90 242 1.7 3.5 0.00 0.00 0.00 46 1001.9
20260505200830 90 225 2.6 6.1 0.00 0.00 0.00 45 1001.9
20260505200326 90 252 3.5 7.0 0.00 0.00 0.00 45 1002.0
20260505195822 90 218 3.5 6.1 0.00 0.00 0.00 46 1001.9
20260505195319 90 247 1.7 2.6 0.00 0.00 0.00 45 1002.1
20260505194816 90 276 1.7 7.0 0.00 0.00 0.00 46 1002.1
20260505194313 90 257 4.3 6.1 0.00 0.00 0.00 44 1002.0
20260505193808 90 323 5.2 7.0 0.00 0.00 0.00 44 1002.0
20260505193307 90 284 2.6 6.1 0.00 0.00 0.00 47 1001.9
20260505192804 90 244 2.6 7.8 0.00 0.00 0.00 47 1001.9
20260505192305 89 317 1.7 7.0 0.00 0.00 0.00 47 1002.1
20260505191800 89 207 3.5 3.5 0.00 0.00 0.00 49 1002.0
20260505191258 88 219 3.5 6.1 0.00 0.00 0.00 49 1001.9
20260505190754 88 238 3.5 6.1 0.00 0.00 0.00 49 1002.0
20260505190249 87 254 5.2 7.8 0.00 0.00 0.00 50 1002.0
20260505185746 88 262 7.0 8.7 0.00 0.00 0.00 49 1001.9
20260505185242 89 247 2.6 6.1 0.00 0.00 0.00 50 1002.1
20260505184738 88 220 3.5 6.1 0.00 0.00 0.00 51 1002.0
20260505184236 88 297 3.5 6.1 0.00 0.00 0.00 51 1002.1
20260505183733 88 272 1.7 8.7 0.00 0.00 0.00 53 1002.0
20260505183230 87 242 0.9 1.7 0.00 0.00 0.00 54 1002.2
20260505182726 87 272 5.2 7.8 0.00 0.00 0.00 53 1002.2
20260505182223 87 213 3.5 6.1 0.00 0.00 0.00 56 1002.1
20260505181719 87 155 0.9 6.1 0.00 0.00 0.00 57 1002.3
20260505181217 86 249 1.7 2.6 0.00 0.00 0.00 58 1002.2
20260505180714 86 253 2.6 7.8 0.00 0.00 0.00 57 1002.4
20260505180210 85 299 2.6 5.2 0.00 0.00 0.00 59 1002.3
20260505175706 84 219 0.9 3.5 0.00 0.00 0.00 61 1002.4
20260505175203 84 318 3.5 7.0 0.00 0.00 0.00 60 1002.2
20260505174659 84 211 0.9 2.6 0.00 0.00 0.00 61 1002.4
20260505174155 84 198 3.5 5.2 0.00 0.00 0.00 61 1002.5
20260505173652 84 276 3.5 6.1 0.00 0.00 0.00 61 1002.5
20260505173149 84 219 1.7 2.6 0.00 0.00 0.00 61 1002.6
20260505172647 83 233 3.5 6.1 0.00 0.00 0.00 63 1002.6
20260505172144 83 262 0.9 2.6 0.00 0.00 0.00 64 1002.7
20260505171643 82 245 1.7 3.5 0.00 0.00 0.00 65 1002.6
20260505171141 82 228 1.7 3.5 0.00 0.00 0.00 65 1002.5
20260505170638 82 257 2.6 5.2 0.00 0.00 0.00 65 1002.6
20260505170134 82 239 1.7 3.5 0.00 0.00 0.00 64 1002.6
20260505165629 82 295 1.7 2.6 0.00 0.00 0.00 65 1002.7
20260505165126 82 229 3.5 7.8 0.00 0.00 0.00 64 1002.4
20260505164621 82 206 1.7 3.5 0.00 0.00 0.00 65 1002.7
20260505164119 81 281 2.6 5.2 0.00 0.00 0.00 65 1002.6
20260505163617 81 272 1.7 5.2 0.00 0.00 0.00 66 1002.7
20260505163114 82 227 2.6 3.5 0.00 0.00 0.00 65 1002.5
20260505162612 82 273 2.6 3.5 0.00 0.00 0.00 65 1002.4
20260505162109 80 277 0.9 1.7 0.00 0.00 0.00 68 1002.4
20260505161606 80 273 1.7 3.5 0.00 0.00 0.00 69 1002.1
20260505161103 79 240 1.7 3.5 0.00 0.00 0.00 69 1002.1
20260505160601 79 323 2.6 6.1 0.00 0.00 0.00 69 1002.3
20260505153038 77 187 0.9 3.5 0.00 0.00 0.00 73 1002.0
20260505152534 77 272 2.6 3.5 0.00 0.00 0.00 73 1002.1
20260505152030 77 239 2.6 5.2 0.00 0.00 0.00 72 1002.4
20260505151531 77 248 0.9 5.2 0.00 0.00 0.00 72 1002.3
20260505151028 78 251 1.7 3.5 0.00 0.00 0.00 72 1002.5
20260505150524 77 240 1.7 1.7 0.00 0.00 0.00 74 1002.3
20260505140449 73 267 1.7 5.2 0.00 0.00 0.00 80 1002.4
20260505124903 71 184 1.7 2.6 0.00 0.00 0.00 84 1001.7
20260505124400 70 282 0.9 3.5 0.00 0.00 0.00 84 1001.6
20260505123856 70 250 0.9 0.9 0.00 0.00 0.00 85 1001.6
20260505123353 70 246 0.9 3.5 0.00 0.00 0.00 85 1001.9
20260505122848 70 14 0.9 1.7 0.00 0.00 0.00 85 1001.3
20260505122346 70 205 2.6 3.5 0.00 0.00 0.00 85 1001.5
20260505121843 70 188 1.7 2.6 0.00 0.00 0.00 85 1001.5
20260505121340 70 87 1.7 3.5 0.00 0.00 0.00 85 1001.5
20260505120836 70 250 3.5 6.1 0.00 0.00 0.00 85 1001.5
20260505120332 70 270 3.5 6.1 0.00 0.00 0.00 85 1001.4
20260505115831 70 309 1.7 2.6 0.00 0.00 0.00 85 1001.4
20260505115328 70 243 2.6 2.6 0.00 0.00 0.00 85 1001.1
20260505114826 70 239 0.9 2.6 0.00 0.00 0.00 85 1001.0
20260505114322 70 333 0.9 5.2 0.00 0.00 0.00 85 1001.1
20260505113819 70 263 0.9 3.5 0.00 0.00 0.00 85 1001.4
20260505113315 70 239 1.7 2.6 0.00 0.00 0.00 85 1001.2
20260505112811 70 213 0.9 5.2 0.00 0.00 0.00 85 1001.2
20260505112309 70 336 0.9 3.5 0.00 0.00 0.00 85 1001.0
20260505111804 70 244 1.7 3.5 0.00 0.00 0.00 86 1001.2
20260505111300 70 275 1.7 2.6 0.00 0.00 0.00 86 1001.0
20260505110756 70 246 0.9 1.7 0.00 0.00 0.00 86 1001.1
20260505110254 69 267 2.6 5.2 0.00 0.00 0.00 86 1000.9
20260505101728 69 202 2.6 5.2 0.00 0.00 0.00 86 1000.7
20260505101224 69 238 1.7 1.7 0.00 0.00 0.00 86 1000.7
20260505100720 69 261 1.7 3.5 0.00 0.00 0.00 86 1001.0
20260505100217 69 224 1.7 5.2 0.00 0.00 0.00 86 1000.7
20260505095712 69 356 1.7 5.2 0.00 0.00 0.00 86 1000.8
20260505095211 69 244 4.3 7.8 0.00 0.00 0.00 86 1000.9
20260505094706 69 341 1.7 2.6 0.00 0.00 0.00 86 1001.0
20260505094203 69 102 1.7 2.6 0.00 0.00 0.00 86 1001.0
20260505093659 69 268 0.9 1.7 0.00 0.00 0.00 86 1001.1
20260505093157 69 297 0.9 3.5 0.00 0.00 0.00 86 1001.3
20260505092653 69 31 0.9 3.5 0.00 0.00 0.00 86 1001.2
20260505092152 69 238 0.9 2.6 0.00 0.00 0.00 86 1001.3
20260505091649 69 233 2.6 3.5 0.00 0.00 0.00 85 1001.3
20260505091147 69 142 0.9 3.5 0.00 0.00 0.00 85 1001.4
20260505090644 69 268 1.7 3.5 0.00 0.00 0.00 85 1001.3
20260505090142 69 249 2.6 3.5 0.00 0.00 0.00 85 1001.4
20260505085639 70 196 2.6 7.8 0.00 0.00 0.00 84 1001.5
20260505085137 70 253 1.7 5.2 0.00 0.00 0.00 84 1001.4
20260505084635 70 203 3.5 6.1 0.00 0.00 0.00 84 1001.4
20260505084133 70 243 1.7 2.6 0.00 0.00 0.00 83 1001.4
20260505083630 70 214 0.9 2.6 0.00 0.00 0.00 83 1001.6
20260505083127 70 165 3.5 5.2 0.00 0.00 0.00 83 1001.8
20260505082623 70 237 2.6 3.5 0.00 0.00 0.00 82 1001.6
20260505082120 71 107 0.9 5.2 0.00 0.00 0.00 82 1001.4
20260505081616 71 258 0.9 7.8 0.00 0.00 0.00 82 1001.2
20260505081114 71 247 1.7 2.6 0.00 0.00 0.00 81 1001.6
20260505080609 71 14 1.7 3.5 0.00 0.00 0.00 81 1001.5
20260505080106 71 312 1.7 5.2 0.00 0.00 0.00 80 1001.5
20260505075602 71 226 1.7 2.6 0.00 0.00 0.00 80 1001.3
20260505075059 71 186 2.6 6.1 0.00 0.00 0.00 79 1001.4
20260505074556 71 169 2.6 3.5 0.00 0.00 0.00 79 1001.7
20260505074053 71 164 4.3 7.0 0.00 0.00 0.00 78 1001.6
20260505073550 71 192 1.7 2.6 0.00 0.00 0.00 78 1001.9
20260505073049 71 235 0.9 5.2 0.00 0.00 0.00 77 1001.9
20260505072549 71 248 1.7 2.6 0.00 0.00 0.00 77 1002.0
20260505072046 71 139 0.0 3.5 0.00 0.00 0.00 77 1002.1
20260505071541 72 224 0.9 2.6 0.00 0.00 0.00 77 1002.3
20260505071040 72 147 1.7 1.7 0.00 0.00 0.00 76 1002.2
20260505070537 72 301 0.9 1.7 0.00 0.00 0.00 76 1002.3
20260505070033 72 13 0.9 5.2 0.00 0.00 0.00 76 1002.5
20260505065529 72 201 0.9 1.7 0.00 0.00 0.00 76 1002.5
20260505065026 72 222 1.7 2.6 0.00 0.00 0.00 75 1002.8
20260505064523 72 269 0.9 6.1 0.00 0.00 0.00 75 1002.7
20260505064021 72 289 1.7 3.5 0.00 0.00 0.00 75 1002.8
20260505063518 72 262 0.0 1.7 0.00 0.00 0.00 75 1002.8
20260505063014 72 272 0.9 1.7 0.00 0.00 0.00 74 1002.9
20260505062511 72 138 0.9 6.1 0.00 0.00 0.00 74 1002.9
20260505062008 72 294 1.7 1.7 0.00 0.00 0.00 74 1002.8
20260505061506 72 119 0.9 2.6 0.00 0.00 0.00 74 1002.5
20260505061003 72 167 1.7 2.6 0.00 0.00 0.00 74 1002.9
20260505060500 72 276 0.9 2.6 0.00 0.00 0.00 74 1003.0
20260505055956 72 296 0.9 2.6 0.00 0.00 0.00 74 1003.1
20260505055452 73 169 0.0 5.2 0.00 0.00 0.00 73 1002.9
20260505054949 73 272 0.9 2.6 0.00 0.00 0.00 73 1002.7
20260505054447 73 69 1.7 2.6 0.00 0.00 0.00 73 1002.7
20260505053945 73 248 0.9 2.6 0.00 0.00 0.00 73 1002.9
20260505053441 73 256 3.5 6.1 0.00 0.00 0.00 73 1002.6
20260505052938 73 266 0.9 5.2 0.00 0.00 0.00 72 1002.8
20260505052435 73 194 1.7 6.1 0.00 0.00 0.00 72 1002.5
20260505051932 73 165 0.9 7.0 0.00 0.00 0.00 72 1002.4
20260505051429 74 255 1.7 5.2 0.00 0.00 0.00 72 1003.0
20260505050927 74 206 0.9 7.0 0.00 0.00 0.00 71 1002.9
20260505050425 74 135 0.9 1.7 0.00 0.00 0.00 71 1002.9
20260505041353 74 159 1.7 3.5 0.00 0.00 0.00 70 1002.9
20260505040850 75 49 0.9 9.6 0.00 0.00 0.00 70 1003.0
20260505040348 75 267 0.9 2.6 0.00 0.00 0.00 69 1003.1
20260505035844 75 58 1.7 3.5 0.00 0.00 0.00 69 1003.1
20260505035340 75 253 6.1 8.7 0.00 0.00 0.00 69 1002.9
20260505034838 75 224 1.7 1.7 0.00 0.00 0.00 69 1002.8
20260505034334 75 130 0.9 3.5 0.00 0.00 0.00 68 1002.9
20260505033831 75 168 1.7 5.2 0.00 0.00 0.00 68 1003.1
20260505033328 75 299 2.6 5.2 0.00 0.00 0.00 67 1002.9
20260505032826 75 195 1.7 1.7 0.00 0.00 0.00 67 1002.8
20260505032322 76 203 5.2 8.7 0.00 0.00 0.00 67 1002.7
20260505031820 76 262 3.5 7.0 0.00 0.00 0.00 67 1002.7
20260505031316 76 210 1.7 1.7 0.00 0.00 0.00 67 1002.8
20260505030813 76 63 0.9 6.1 0.00 0.00 0.00 67 1002.8
20260505030310 76 210 3.5 7.0 0.00 0.00 0.00 67 1002.7
20260505025804 76 310 1.7 5.2 0.00 0.00 0.00 66 1002.8
20260505025304 76 95 0.9 5.2 0.00 0.00 0.00 66 1003.1